| time (UTC) | temp C | wind direction | speed KPH | gust KPH | rain 1hr cm | rain 24hr cm | rain mn cm | humidity % | barometer mb |
| 20260508120204 | 20 | 41 | 1.6 | 8.0 | 0.00 | 0.00 | 0.00 | 60 | 1010.0 |
| 20260508114704 | 20 | 40 | 3.2 | 4.8 | 0.00 | 0.00 | 0.00 | 63 | 1010.0 |
| 20260508113704 | 20 | 40 | 1.6 | 4.8 | 0.00 | 0.00 | 0.00 | 64 | 1010.0 |
| 20260508113205 | 20 | 40 | 1.6 | 8.0 | 0.00 | 0.00 | 0.00 | 64 | 1010.0 |
| 20260508110704 | 20 | 39 | 3.2 | 9.7 | 0.00 | 0.00 | 0.00 | 63 | 1010.1 |
| 20260508103203 | 20 | 42 | 1.6 | 8.0 | 0.00 | 0.00 | 0.00 | 67 | 1010.5 |
| 20260508100704 | 19 | 46 | 3.2 | 9.7 | 0.00 | 0.00 | 0.00 | 69 | 1010.5 |
| 20260508094204 | 18 | 46 | 1.6 | 4.8 | 0.00 | 0.00 | 0.00 | 74 | 1010.6 |
| 20260508093704 | 18 | 46 | 1.6 | 9.7 | 0.00 | 0.00 | 0.00 | 73 | 1010.6 |
| 20260508093204 | 18 | 32 | 1.6 | 8.0 | 0.00 | 0.00 | 0.00 | 75 | 1010.6 |
| 20260508091204 | 18 | 32 | 3.2 | 4.8 | 0.00 | 0.00 | 0.00 | 75 | 1010.5 |
| 20260508081703 | 17 | 36 | 3.2 | 9.7 | 0.00 | 0.00 | 0.00 | 77 | 1010.2 |
| 20260508070703 | 15 | 36 | 1.6 | 4.8 | 0.00 | 0.00 | 0.00 | 86 | 1010.2 |
| 20260508070204 | 14 | 36 | 0.0 | 4.8 | 0.00 | 0.00 | 0.00 | 87 | 1010.2 |
| 20260508064704 | 13 | 36 | 0.0 | 1.6 | 0.00 | 0.00 | 0.00 | 86 | 1009.9 |
| 20260508063704 | 13 | 36 | 1.6 | 3.2 | 0.00 | 0.00 | 0.00 | 88 | 1009.9 |
| 20260508061703 | 13 | 36 | 0.0 | 3.2 | 0.00 | 0.00 | 0.00 | 92 | 1009.9 |
| 20260508061203 | 13 | 36 | 0.0 | 3.2 | 0.00 | 0.00 | 0.00 | 92 | 1009.5 |
| 20260508060204 | 12 | 36 | 0.0 | 4.8 | 0.00 | 0.00 | 0.00 | 93 | 1009.5 |
| 20260508054703 | 12 | 36 | 1.6 | 4.8 | 0.00 | 0.00 | 0.00 | 93 | 1009.5 |
| 20260508054203 | 11 | 36 | 0.0 | 0.0 | 0.00 | 0.00 | 0.00 | 93 | 1009.5 |
| 20260508053704 | 11 | 36 | 0.0 | 3.2 | 0.00 | 0.00 | 0.00 | 92 | 1009.5 |
| 20260508051703 | 11 | 36 | 0.0 | 0.0 | 0.00 | 0.00 | 0.00 | 93 | 1009.2 |
| 20260508051204 | 11 | 36 | 0.0 | 0.0 | 0.00 | 0.00 | 0.00 | 93 | 1009.2 |
| 20260508050704 | 11 | 36 | 0.0 | 3.2 | 0.00 | 0.00 | 0.00 | 94 | 1009.2 |
| 20260508050203 | 11 | 36 | 0.0 | 1.6 | 0.00 | 0.00 | 0.00 | 94 | 1009.2 |
| 20260508044704 | 11 | 36 | 0.0 | 0.0 | 0.00 | 0.00 | 0.00 | 94 | 1009.0 |
| 20260508043703 | 11 | 36 | 0.0 | 1.6 | 0.00 | 0.00 | 0.00 | 94 | 1009.0 |
| 20260508043204 | 11 | 36 | 0.0 | 0.0 | 0.00 | 0.00 | 0.00 | 94 | 1009.0 |
| 20260508041203 | 10 | 36 | 0.0 | 0.0 | 0.00 | 0.00 | 0.00 | 92 | 1008.9 |
| 20260508040203 | 10 | 36 | 0.0 | 4.8 | 0.00 | 0.00 | 0.00 | 92 | 1008.9 |
| 20260508034704 | 10 | 36 | 0.0 | 0.0 | 0.00 | 0.00 | 0.00 | 92 | 1008.9 |
| 20260508033203 | 10 | 36 | 0.0 | 0.0 | 0.00 | 0.00 | 0.00 | 92 | 1008.6 |
| 20260508024704 | 10 | 36 | 0.0 | 3.2 | 0.00 | 0.00 | 0.00 | 92 | 1008.9 |
| 20260508024204 | 10 | 36 | 0.0 | 0.0 | 0.00 | 0.00 | 0.00 | 92 | 1008.9 |
| 20260508021204 | 10 | 36 | 0.0 | 0.0 | 0.00 | 0.00 | 0.00 | 90 | 1008.9 |
| 20260508020703 | 10 | 36 | 0.0 | 3.2 | 0.00 | 0.00 | 0.00 | 89 | 1008.9 |
| 20260508010703 | 11 | 36 | 0.0 | 0.0 | 0.00 | 0.00 | 0.00 | 85 | 1008.6 |
| 20260508010205 | 11 | 36 | 0.0 | 1.6 | 0.00 | 0.00 | 0.00 | 85 | 1008.6 |
| 20260508004204 | 12 | 36 | 1.6 | 4.8 | 0.00 | 0.00 | 0.00 | 83 | 1008.6 |
| 20260508003203 | 12 | 36 | 1.6 | 4.8 | 0.00 | 0.00 | 0.00 | 84 | 1008.6 |
| 20260508001703 | 12 | 36 | 0.0 | 4.8 | 0.00 | 0.00 | 0.00 | 83 | 1008.6 |
| 20260508001203 | 12 | 36 | 0.0 | 3.2 | 0.00 | 0.00 | 0.00 | 83 | 1008.6 |
| 20260508000704 | 12 | 36 | 0.0 | 4.8 | 0.00 | 0.00 | 0.00 | 83 | 1008.7 |
| 20260507234703 | 12 | 36 | 0.0 | 1.6 | 0.00 | 0.00 | 0.00 | 80 | 1008.8 |
| 20260507233203 | 12 | 36 | 0.0 | 0.0 | 0.00 | 0.00 | 0.00 | 80 | 1008.7 |
| 20260507231704 | 12 | 36 | 0.0 | 0.0 | 0.00 | 0.00 | 0.00 | 78 | 1008.7 |
| 20260507231203 | 12 | 36 | 0.0 | 1.6 | 0.00 | 0.00 | 0.00 | 78 | 1008.7 |
| 20260507223704 | 13 | 36 | 1.6 | 4.8 | 0.00 | 0.00 | 0.00 | 77 | 1008.6 |
| 20260507221703 | 13 | 36 | 0.0 | 0.0 | 0.00 | 0.00 | 0.00 | 75 | 1008.4 |
| 20260507220204 | 13 | 36 | 0.0 | 1.6 | 0.00 | 0.00 | 0.00 | 76 | 1008.4 |
| 20260507214704 | 13 | 36 | 0.0 | 1.6 | 0.00 | 0.00 | 0.00 | 76 | 1008.4 |
| 20260507213704 | 13 | 36 | 1.6 | 4.8 | 0.00 | 0.00 | 0.00 | 76 | 1008.2 |
| 20260507213204 | 13 | 36 | 1.6 | 8.0 | 0.00 | 0.00 | 0.00 | 77 | 1008.2 |
| 20260507210204 | 13 | 36 | 1.6 | 3.2 | 0.00 | 0.00 | 0.00 | 79 | 1008.2 |
| 20260507204704 | 13 | 36 | 0.0 | 0.0 | 0.00 | 0.00 | 0.00 | 77 | 1008.2 |
| 20260507204203 | 13 | 36 | 0.0 | 0.0 | 0.00 | 0.00 | 0.00 | 78 | 1008.2 |
| 20260507201703 | 14 | 36 | 0.0 | 0.0 | 0.00 | 0.00 | 0.00 | 74 | 1007.9 |
| 20260507200704 | 14 | 36 | 0.0 | 0.0 | 0.00 | 0.00 | 0.00 | 71 | 1007.9 |
| 20260507200204 | 14 | 36 | 0.0 | 0.0 | 0.00 | 0.00 | 0.00 | 71 | 1007.9 |
| 20260507194704 | 15 | 36 | 0.0 | 0.0 | 0.00 | 0.00 | 0.00 | 68 | 1007.6 |
| 20260507191704 | 16 | 36 | 0.0 | 0.0 | 0.00 | 0.00 | 0.00 | 62 | 1007.6 |
| 20260507184704 | 17 | 36 | 0.0 | 0.0 | 0.00 | 0.00 | 0.00 | 57 | 1006.6 |
| 20260507184203 | 17 | 36 | 0.0 | 0.0 | 0.00 | 0.00 | 0.00 | 56 | 1006.6 |
| 20260507183205 | 18 | 36 | 0.0 | 1.6 | 0.00 | 0.00 | 0.00 | 55 | 1006.6 |
| 20260507181204 | 18 | 36 | 0.0 | 1.6 | 0.00 | 0.00 | 0.00 | 50 | 1006.6 |
| 20260507180205 | 19 | 36 | 0.0 | 4.8 | 0.00 | 0.00 | 0.00 | 47 | 1006.6 |
| 20260507173205 | 20 | 36 | 1.6 | 4.8 | 0.00 | 0.00 | 0.00 | 43 | 1006.6 |
| 20260507171705 | 21 | 36 | 0.0 | 3.2 | 0.00 | 0.00 | 0.00 | 42 | 1006.6 |
| 20260507171204 | 21 | 36 | 0.0 | 1.6 | 0.00 | 0.00 | 0.00 | 42 | 1006.4 |
| 20260507170205 | 21 | 36 | 1.6 | 4.8 | 0.00 | 0.00 | 0.00 | 41 | 1006.4 |
| 20260507164205 | 21 | 36 | 1.6 | 4.8 | 0.00 | 0.00 | 0.00 | 40 | 1006.4 |
| 20260507160205 | 21 | 36 | 1.6 | 4.8 | 0.00 | 0.00 | 0.00 | 40 | 1006.4 |
| 20260507151205 | 22 | 36 | 1.6 | 4.8 | 0.00 | 0.00 | 0.00 | 40 | 1006.8 |
| 20260507144204 | 22 | 36 | 3.2 | 4.8 | 0.00 | 0.00 | 0.00 | 39 | 1006.8 |
| 20260507143205 | 23 | 36 | 3.2 | 9.7 | 0.00 | 0.00 | 0.00 | 37 | 1006.7 |
| 20260507140205 | 22 | 32 | 3.2 | 11.3 | 0.00 | 0.00 | 0.00 | 36 | 1006.9 |
| 20260507134205 | 22 | 31 | 3.2 | 8.0 | 0.00 | 0.00 | 0.00 | 38 | 1006.9 |
| 20260507133205 | 22 | 23 | 1.6 | 8.0 | 0.00 | 0.00 | 0.00 | 37 | 1006.9 |
| 20260507131704 | 22 | 15 | 1.6 | 4.8 | 0.00 | 0.00 | 0.00 | 38 | 1006.9 |
| 20260507131205 | 22 | 18 | 1.6 | 4.8 | 0.00 | 0.00 | 0.00 | 39 | 1006.9 |
| 20260507124205 | 22 | 17 | 3.2 | 8.0 | 0.00 | 0.00 | 0.00 | 42 | 1006.9 |
| 20260507123704 | 22 | 14 | 3.2 | 4.8 | 0.00 | 0.00 | 0.00 | 41 | 1006.9 |
| 20260507121704 | 21 | 12 | 3.2 | 4.8 | 0.00 | 0.00 | 0.00 | 41 | 1007.4 |